| time (UTC) | temp C | wind direction | speed KPH | gust KPH | rain 1hr cm | rain 24hr cm | rain mn cm | humidity % | barometer mb |
| 20260906111559 | 22 | 0 | 0.0 | 6.4 | 0.00 | 0.10 | 0.00 | 89 | 1013.9 |
| 20260906110106 | 22 | 117 | 0.0 | 1.6 | 0.00 | 0.10 | 0.00 | 90 | 1013.9 |
| 20260906104556 | 22 | 0 | 0.0 | 1.6 | 0.00 | 0.10 | 0.00 | 90 | 1013.8 |
| 20260906103055 | 22 | 0 | 0.0 | 0.0 | 0.00 | 0.10 | 0.00 | 92 | 1013.6 |
| 20260906101554 | 22 | 0 | 0.0 | 0.0 | 0.00 | 0.10 | 0.00 | 92 | 1013.5 |
| 20260906100049 | 22 | 0 | 0.0 | 4.8 | 0.00 | 0.10 | 0.00 | 93 | 1013.3 |
| 20260906094605 | 22 | 0 | 0.0 | 6.4 | 0.00 | 0.10 | 0.00 | 93 | 1013.1 |
| 20260906093054 | 22 | 116 | 0.0 | 6.4 | 0.00 | 0.10 | 0.00 | 93 | 1013.0 |
| 20260906091602 | 22 | 0 | 0.0 | 4.8 | 0.00 | 0.10 | 0.00 | 93 | 1013.0 |
| 20260906084559 | 21 | 0 | 0.0 | 0.0 | 0.00 | 0.10 | 0.00 | 93 | 1012.6 |
| 20260906083053 | 21 | 0 | 0.0 | 0.0 | 0.00 | 0.10 | 0.00 | 93 | 1012.3 |
| 20260906081553 | 21 | 0 | 0.0 | 1.6 | 0.00 | 0.10 | 0.00 | 93 | 1012.2 |
| 20260906080052 | 21 | 0 | 0.0 | 0.0 | 0.00 | 0.10 | 0.00 | 92 | 1012.1 |
| 20260906074600 | 21 | 0 | 0.0 | 0.0 | 0.00 | 0.10 | 0.00 | 92 | 1012.2 |
| 20260906073055 | 21 | 0 | 0.0 | 0.0 | 0.00 | 0.10 | 0.00 | 92 | 1012.1 |
| 20260906071553 | 21 | 0 | 0.0 | 0.0 | 0.00 | 0.10 | 0.00 | 91 | 1012.3 |
| 20260906070053 | 21 | 0 | 0.0 | 1.6 | 0.00 | 0.10 | 0.00 | 92 | 1012.4 |
| 20260906064549 | 21 | 0 | 0.0 | 0.0 | 0.00 | 0.10 | 0.00 | 91 | 1012.5 |
| 20260906063059 | 21 | 0 | 0.0 | 0.0 | 0.00 | 0.10 | 0.00 | 91 | 1012.6 |
| 20260906061555 | 21 | 0 | 0.0 | 0.0 | 0.00 | 0.10 | 0.00 | 90 | 1012.6 |
| 20260906060053 | 21 | 0 | 0.0 | 0.0 | 0.00 | 0.10 | 0.00 | 90 | 1012.6 |
| 20260906054601 | 22 | 0 | 0.0 | 0.0 | 0.00 | 0.10 | 0.00 | 89 | 1012.6 |
| 20260906053106 | 22 | 0 | 0.0 | 0.0 | 0.00 | 0.10 | 0.00 | 89 | 1012.8 |
| 20260906051551 | 22 | 0 | 0.0 | 0.0 | 0.00 | 0.10 | 0.00 | 88 | 1013.0 |
| 20260906050059 | 22 | 0 | 0.0 | 3.2 | 0.00 | 0.10 | 0.00 | 88 | 1013.0 |
| 20260906044556 | 22 | 0 | 0.0 | 1.6 | 0.00 | 0.10 | 0.00 | 87 | 1013.1 |
| 20260906043100 | 22 | 0 | 0.0 | 1.6 | 0.00 | 0.10 | 0.00 | 86 | 1013.1 |
| 20260906041558 | 22 | 0 | 0.0 | 1.6 | 0.00 | 0.10 | 0.00 | 85 | 1013.3 |
| 20260906040110 | 23 | 0 | 0.0 | 1.6 | 0.00 | 0.10 | 0.00 | 84 | 1013.3 |
| 20260906034601 | 23 | 0 | 0.0 | 6.4 | 0.00 | 0.10 | 0.10 | 83 | 1013.3 |
| 20260906033108 | 23 | 0 | 0.0 | 3.2 | 0.00 | 0.10 | 0.10 | 84 | 1013.4 |
| 20260906031550 | 23 | 116 | 3.2 | 9.7 | 0.00 | 0.10 | 0.10 | 86 | 1013.3 |
| 20260906030052 | 23 | 0 | 0.0 | 0.0 | 0.00 | 0.10 | 0.10 | 85 | 1013.1 |
| 20260906024556 | 22 | 0 | 0.0 | 0.0 | 0.00 | 0.10 | 0.10 | 85 | 1012.9 |
| 20260906023056 | 23 | 0 | 0.0 | 0.0 | 0.00 | 0.10 | 0.10 | 85 | 1012.8 |
| 20260906021555 | 23 | 0 | 0.0 | 0.0 | 0.00 | 0.10 | 0.10 | 86 | 1012.6 |
| 20260906020103 | 23 | 0 | 0.0 | 0.0 | 0.00 | 0.10 | 0.10 | 83 | 1012.8 |
| 20260906014600 | 23 | 0 | 0.0 | 0.0 | 0.00 | 0.10 | 0.10 | 84 | 1012.7 |
| 20260906013106 | 23 | 0 | 0.0 | 0.0 | 0.00 | 0.10 | 0.10 | 83 | 1012.5 |
| 20260906011602 | 23 | 0 | 0.0 | 0.0 | 0.00 | 0.10 | 0.10 | 81 | 1012.5 |
| 20260906010048 | 23 | 0 | 0.0 | 0.0 | 0.00 | 0.10 | 0.10 | 80 | 1012.5 |
| 20260906004601 | 23 | 0 | 0.0 | 0.0 | 0.00 | 0.10 | 0.10 | 79 | 1012.4 |
| 20260906003053 | 24 | 0 | 0.0 | 0.0 | 0.00 | 0.10 | 0.10 | 79 | 1012.3 |
| 20260906001552 | 24 | 0 | 0.0 | 0.0 | 0.00 | 0.10 | 0.10 | 77 | 1012.2 |
| 20260906000100 | 25 | 0 | 0.0 | 0.0 | 0.00 | 0.10 | 0.10 | 75 | 1012.0 |
| 20260905234555 | 25 | 0 | 0.0 | 0.0 | 0.00 | 0.10 | 0.10 | 74 | 1011.8 |
| 20260905233051 | 26 | 0 | 0.0 | 0.0 | 0.00 | 0.10 | 0.10 | 72 | 1011.6 |
| 20260905231549 | 26 | 0 | 0.0 | 0.0 | 0.00 | 0.10 | 0.10 | 72 | 1011.4 |
| 20260905230055 | 26 | 0 | 0.0 | 0.0 | 0.00 | 0.10 | 0.10 | 73 | 1011.5 |
| 20260905224554 | 26 | 0 | 0.0 | 4.8 | 0.00 | 0.10 | 0.10 | 74 | 1011.6 |
| 20260905223049 | 26 | 0 | 0.0 | 1.6 | 0.00 | 0.10 | 0.10 | 74 | 1011.7 |
| 20260905221556 | 25 | 0 | 0.0 | 0.0 | 0.00 | 0.10 | 0.10 | 77 | 1011.7 |
| 20260905220054 | 25 | 0 | 0.0 | 0.0 | 0.00 | 0.10 | 0.10 | 78 | 1012.0 |
| 20260905214550 | 25 | 0 | 0.0 | 4.8 | 0.00 | 0.10 | 0.10 | 78 | 1012.2 |
| 20260905213047 | 25 | 201 | 0.0 | 6.4 | 0.00 | 0.10 | 0.10 | 79 | 1012.2 |
| 20260905211554 | 25 | 197 | 0.0 | 8.0 | 0.00 | 0.10 | 0.10 | 79 | 1012.3 |
| 20260905204550 | 25 | 0 | 0.0 | 6.4 | 0.00 | 0.10 | 0.10 | 78 | 1012.2 |
| 20260905203046 | 24 | 244 | 0.0 | 3.2 | 0.00 | 0.10 | 0.10 | 85 | 1011.7 |
| 20260905201555 | 23 | 0 | 0.0 | 3.2 | 0.00 | 0.10 | 0.10 | 85 | 1011.9 |
| 20260905200050 | 23 | 0 | 0.0 | 3.2 | 0.00 | 0.10 | 0.10 | 88 | 1012.3 |
| 20260905194549 | 23 | 0 | 1.6 | 4.8 | 0.05 | 0.10 | 0.10 | 87 | 1012.2 |
| 20260905193054 | 23 | 0 | 0.0 | 4.8 | 0.10 | 0.10 | 0.10 | 87 | 1012.1 |
| 20260905191557 | 24 | 0 | 0.0 | 6.4 | 0.10 | 0.10 | 0.10 | 83 | 1012.0 |
| 20260905190049 | 25 | 0 | 0.0 | 0.0 | 0.10 | 0.10 | 0.10 | 83 | 1012.1 |
| 20260905184623 | 27 | 0 | 0.0 | 12.9 | 0.05 | 0.05 | 0.05 | 71 | 1012.3 |
| 20260905183055 | 32 | 306 | 0.0 | 6.4 | 0.00 | 0.00 | 0.00 | 56 | 1011.6 |
| 20260905181558 | 33 | 0 | 0.0 | 4.8 | 0.00 | 0.00 | 0.00 | 54 | 1011.9 |
| 20260905180052 | 33 | 0 | 0.0 | 9.7 | 0.00 | 0.00 | 0.00 | 51 | 1012.4 |
| 20260905174623 | 34 | 306 | 0.0 | 6.4 | 0.00 | 0.00 | 0.00 | 52 | 1012.4 |
| 20260905173057 | 34 | 290 | 0.0 | 4.8 | 0.00 | 0.00 | 0.00 | 54 | 1012.6 |
| 20260905171550 | 33 | 0 | 0.0 | 4.8 | 0.00 | 0.00 | 0.00 | 53 | 1013.1 |
| 20260905170051 | 34 | 0 | 0.0 | 3.2 | 0.00 | 0.00 | 0.00 | 54 | 1013.4 |
| 20260905164557 | 33 | 0 | 0.0 | 4.8 | 0.00 | 0.00 | 0.00 | 54 | 1013.5 |
| 20260905163102 | 33 | 277 | 0.0 | 3.2 | 0.00 | 0.00 | 0.00 | 57 | 1013.7 |
| 20260905161551 | 33 | 0 | 0.0 | 1.6 | 0.00 | 0.00 | 0.00 | 56 | 1013.9 |
| 20260905160100 | 33 | 0 | 0.0 | 4.8 | 0.00 | 0.00 | 0.00 | 59 | 1014.0 |
| 20260905154614 | 33 | 0 | 0.0 | 6.4 | 0.00 | 0.00 | 0.00 | 58 | 1014.1 |
| 20260905153057 | 32 | 0 | 0.0 | 3.2 | 0.00 | 0.00 | 0.00 | 59 | 1014.2 |
| 20260905151552 | 32 | 0 | 0.0 | 6.4 | 0.00 | 0.00 | 0.00 | 61 | 1014.3 |
| 20260905150047 | 31 | 0 | 0.0 | 3.2 | 0.00 | 0.00 | 0.00 | 61 | 1014.4 |
| 20260905144554 | 31 | 0 | 0.0 | 3.2 | 0.00 | 0.00 | 0.00 | 64 | 1014.5 |
| 20260905143054 | 30 | 0 | 0.0 | 0.0 | 0.00 | 0.00 | 0.00 | 67 | 1014.3 |
| 20260905141550 | 29 | 0 | 0.0 | 4.8 | 0.00 | 0.00 | 0.00 | 72 | 1014.2 |
| 20260905134554 | 27 | 206 | 0.0 | 0.0 | 0.00 | 0.00 | 0.00 | 76 | 1014.2 |
| 20260905133052 | 26 | 0 | 0.0 | 8.0 | 0.00 | 0.00 | 0.00 | 79 | 1014.2 |
| 20260905131550 | 26 | 0 | 0.0 | 3.2 | 0.00 | 0.00 | 0.00 | 81 | 1014.3 |
| 20260905130052 | 25 | 0 | 0.0 | 6.4 | 0.00 | 0.00 | 0.00 | 83 | 1014.4 |
| 20260905124553 | 25 | 0 | 0.0 | 4.8 | 0.00 | 0.00 | 0.00 | 84 | 1014.6 |
| 20260905123059 | 23 | 0 | 0.0 | 4.8 | 0.00 | 0.00 | 0.00 | 87 | 1014.4 |
| 20260905121550 | 23 | 0 | 0.0 | 6.4 | 0.00 | 0.00 | 0.00 | 88 | 1014.6 |
| 20260905120050 | 22 | 0 | 0.0 | 0.0 | 0.00 | 0.00 | 0.00 | 90 | 1014.4 |
| 20260905114548 | 22 | 0 | 0.0 | 0.0 | 0.00 | 0.00 | 0.00 | 92 | 1014.2 |
| 20260905113056 | 21 | 0 | 0.0 | 0.0 | 0.00 | 0.00 | 0.00 | 92 | 1014.0 |